| time (UTC) | temp C | wind direction | speed KPH | gust KPH | rain 1hr cm | rain 24hr cm | rain mn cm | humidity % | barometer mb |
| 20260503194017 | 15 | 283 | 1.6 | 4.8 | 0.00 | 0.00 | 0.00 | 46 | 679.7 |
| 20260503193037 | 15 | 301 | 1.6 | 4.8 | 0.00 | 0.00 | 0.00 | 44 | 679.8 |
| 20260503192017 | 15 | 307 | 3.2 | 8.0 | 0.00 | 0.00 | 0.00 | 46 | 679.8 |
| 20260503191017 | 15 | 294 | 3.2 | 8.0 | 0.00 | 0.00 | 0.00 | 46 | 679.7 |
| 20260503190018 | 15 | 266 | 4.8 | 19.3 | 0.00 | 0.00 | 0.00 | 45 | 679.8 |
| 20260503185032 | 15 | 264 | 3.2 | 8.0 | 0.00 | 0.00 | 0.00 | 46 | 679.8 |
| 20260503184032 | 15 | 286 | 4.8 | 11.3 | 0.00 | 0.00 | 0.00 | 44 | 679.7 |
| 20260503183018 | 15 | 276 | 6.4 | 14.5 | 0.00 | 0.00 | 0.00 | 43 | 679.8 |
| 20260503182019 | 16 | 298 | 4.8 | 12.9 | 0.00 | 0.00 | 0.00 | 43 | 679.8 |
| 20260503181018 | 16 | 307 | 6.4 | 9.7 | 0.00 | 0.00 | 0.00 | 42 | 679.8 |
| 20260503180018 | 17 | 271 | 4.8 | 12.9 | 0.00 | 0.00 | 0.00 | 38 | 679.8 |
| 20260503175039 | 17 | 300 | 3.2 | 6.4 | 0.00 | 0.00 | 0.00 | 37 | 679.9 |
| 20260503174018 | 18 | 293 | 4.8 | 11.3 | 0.00 | 0.00 | 0.00 | 35 | 679.9 |
| 20260503173039 | 19 | 273 | 4.8 | 8.0 | 0.00 | 0.00 | 0.00 | 35 | 679.9 |
| 20260503172019 | 19 | 282 | 6.4 | 11.3 | 0.00 | 0.00 | 0.00 | 38 | 679.9 |
| 20260503171019 | 19 | 303 | 3.2 | 9.7 | 0.00 | 0.00 | 0.00 | 37 | 679.9 |
| 20260503131022 | 7 | 234 | 8.0 | 11.3 | 0.00 | 0.00 | 0.00 | 61 | 679.3 |
| 20260503080956 | 0 | 312 | 1.6 | 4.8 | 0.00 | 0.00 | 0.00 | 74 | 679.1 |
| 20260503072047 | 0 | 246 | 3.2 | 4.8 | 0.00 | 0.00 | 0.00 | 72 | 679.1 |
| 20260503071027 | 0 | 243 | 3.2 | 6.4 | 0.00 | 0.00 | 0.00 | 72 | 679.1 |
| 20260503055028 | 1 | 229 | 4.8 | 6.4 | 0.00 | 0.00 | 0.00 | 69 | 679.1 |
| 20260503054028 | 1 | 233 | 4.8 | 8.0 | 0.00 | 0.00 | 0.00 | 68 | 679.1 |
| 20260503053048 | 1 | 241 | 3.2 | 6.4 | 0.00 | 0.00 | 0.00 | 68 | 679.1 |
| 20260503052029 | 1 | 230 | 3.2 | 6.4 | 0.00 | 0.00 | 0.00 | 68 | 679.1 |
| 20260503051029 | 1 | 237 | 3.2 | 4.8 | 0.00 | 0.00 | 0.00 | 68 | 679.1 |
| 20260503050029 | 1 | 220 | 4.8 | 6.4 | 0.00 | 0.00 | 0.00 | 68 | 679.1 |
| 20260503045049 | 1 | 220 | 3.2 | 6.4 | 0.00 | 0.00 | 0.00 | 68 | 679.1 |
| 20260503044029 | 1 | 239 | 3.2 | 4.8 | 0.00 | 0.00 | 0.00 | 67 | 679.2 |
| 20260503043029 | 1 | 231 | 3.2 | 6.4 | 0.00 | 0.00 | 0.00 | 67 | 679.2 |
| 20260503042050 | 1 | 234 | 3.2 | 4.8 | 0.00 | 0.00 | 0.00 | 65 | 679.2 |
| 20260503041050 | 1 | 236 | 3.2 | 4.8 | 0.00 | 0.00 | 0.00 | 65 | 679.2 |
| 20260503040030 | 1 | 254 | 3.2 | 4.8 | 0.00 | 0.00 | 0.00 | 64 | 679.2 |
| 20260503035030 | 1 | 247 | 3.2 | 4.8 | 0.00 | 0.00 | 0.00 | 64 | 679.2 |
| 20260503034030 | 1 | 243 | 3.2 | 3.2 | 0.00 | 0.00 | 0.00 | 63 | 679.2 |
| 20260503033030 | 1 | 241 | 3.2 | 3.2 | 0.00 | 0.00 | 0.00 | 62 | 679.2 |
| 20260503032030 | 1 | 237 | 3.2 | 4.8 | 0.00 | 0.00 | 0.00 | 61 | 679.2 |
| 20260503031030 | 1 | 228 | 3.2 | 4.8 | 0.00 | 0.00 | 0.00 | 60 | 679.2 |
| 20260503030031 | 2 | 234 | 3.2 | 4.8 | 0.00 | 0.00 | 0.00 | 59 | 679.2 |
| 20260503025031 | 2 | 247 | 3.2 | 4.8 | 0.00 | 0.00 | 0.00 | 58 | 679.2 |
| 20260503024031 | 2 | 248 | 3.2 | 4.8 | 0.00 | 0.00 | 0.00 | 57 | 679.2 |
| 20260503023031 | 2 | 266 | 3.2 | 3.2 | 0.00 | 0.00 | 0.00 | 56 | 679.2 |
| 20260503022031 | 2 | 265 | 3.2 | 3.2 | 0.00 | 0.00 | 0.00 | 55 | 679.2 |
| 20260503021031 | 2 | 273 | 1.6 | 3.2 | 0.00 | 0.00 | 0.00 | 54 | 679.2 |
| 20260503020031 | 3 | 296 | 1.6 | 3.2 | 0.00 | 0.00 | 0.00 | 53 | 679.2 |
| 20260503015031 | 3 | 306 | 1.6 | 3.2 | 0.00 | 0.00 | 0.00 | 52 | 679.3 |
| 20260503014031 | 3 | 280 | 1.6 | 1.6 | 0.00 | 0.00 | 0.00 | 52 | 679.3 |
| 20260503013032 | 3 | 292 | 1.6 | 3.2 | 0.00 | 0.00 | 0.00 | 51 | 679.3 |
| 20260503012032 | 4 | 279 | 1.6 | 3.2 | 0.00 | 0.00 | 0.00 | 51 | 679.3 |
| 20260503011031 | 5 | 278 | 1.6 | 1.6 | 0.00 | 0.00 | 0.00 | 49 | 679.3 |
| 20260503010112 | 5 | 260 | 1.6 | 1.6 | 0.00 | 0.00 | 0.00 | 48 | 679.3 |
| 20260503005032 | 5 | 264 | 1.6 | 1.6 | 0.00 | 0.00 | 0.00 | 48 | 679.3 |
| 20260503004032 | 5 | 299 | 1.6 | 1.6 | 0.00 | 0.00 | 0.00 | 47 | 679.3 |
| 20260503003032 | 6 | 263 | 1.6 | 1.6 | 0.00 | 0.00 | 0.00 | 46 | 679.4 |
| 20260503002032 | 6 | 304 | 1.6 | 3.2 | 0.00 | 0.00 | 0.00 | 44 | 679.4 |
| 20260503001113 | 6 | 325 | 1.6 | 3.2 | 0.00 | 0.00 | 0.00 | 42 | 679.4 |
| 20260503000018 | 7 | 319 | 3.2 | 6.4 | 0.00 | 0.00 | 0.00 | 42 | 679.4 |
| 20260502235033 | 7 | 333 | 3.2 | 6.4 | 0.00 | 0.00 | 0.00 | 40 | 679.4 |
| 20260502234018 | 7 | 321 | 4.8 | 9.7 | 0.00 | 0.00 | 0.00 | 39 | 679.4 |
| 20260502233038 | 8 | 332 | 3.2 | 6.4 | 0.00 | 0.00 | 0.00 | 39 | 679.4 |
| 20260502232038 | 8 | 326 | 6.4 | 9.7 | 0.00 | 0.00 | 0.00 | 38 | 679.5 |
| 20260502231018 | 8 | 327 | 4.8 | 9.7 | 0.00 | 0.00 | 0.00 | 36 | 679.5 |
| 20260502230018 | 8 | 337 | 6.4 | 9.7 | 0.00 | 0.00 | 0.00 | 36 | 679.5 |
| 20260502225019 | 8 | 342 | 4.8 | 11.3 | 0.00 | 0.00 | 0.00 | 35 | 679.5 |
| 20260502224019 | 9 | 324 | 6.4 | 12.9 | 0.00 | 0.00 | 0.00 | 36 | 679.5 |
| 20260502223019 | 9 | 349 | 6.4 | 11.3 | 0.00 | 0.00 | 0.00 | 35 | 679.5 |
| 20260502222019 | 10 | 336 | 4.8 | 9.7 | 0.00 | 0.00 | 0.00 | 35 | 679.5 |
| 20260502221019 | 10 | 342 | 3.2 | 9.7 | 0.00 | 0.00 | 0.00 | 34 | 679.5 |
| 20260502220019 | 10 | 2 | 6.4 | 12.9 | 0.00 | 0.00 | 0.00 | 32 | 679.5 |
| 20260502215019 | 10 | 353 | 6.4 | 9.7 | 0.00 | 0.00 | 0.00 | 33 | 679.5 |
| 20260502214020 | 10 | 8 | 8.0 | 12.9 | 0.00 | 0.00 | 0.00 | 31 | 679.5 |
| 20260502213019 | 10 | 343 | 9.7 | 14.5 | 0.00 | 0.00 | 0.00 | 33 | 679.5 |
| 20260502212020 | 11 | 342 | 6.4 | 9.7 | 0.00 | 0.00 | 0.00 | 34 | 679.5 |
| 20260502211020 | 11 | 342 | 6.4 | 14.5 | 0.00 | 0.00 | 0.00 | 34 | 679.5 |
| 20260502210020 | 11 | 351 | 6.4 | 16.1 | 0.00 | 0.00 | 0.00 | 35 | 679.5 |
| 20260502205020 | 11 | 338 | 6.4 | 14.5 | 0.00 | 0.00 | 0.00 | 36 | 679.5 |
| 20260502204020 | 11 | 335 | 8.0 | 14.5 | 0.00 | 0.00 | 0.00 | 38 | 679.5 |
| 20260502203020 | 11 | 323 | 8.0 | 12.9 | 0.00 | 0.00 | 0.00 | 38 | 679.5 |
| 20260502202101 | 10 | 336 | 6.4 | 11.3 | 0.00 | 0.00 | 0.00 | 39 | 679.5 |
| 20260502201021 | 10 | 314 | 6.4 | 16.1 | 0.00 | 0.00 | 0.00 | 39 | 679.5 |
| 20260502200021 | 10 | 356 | 6.4 | 12.9 | 0.00 | 0.00 | 0.00 | 37 | 679.5 |
| 20260502195021 | 10 | 339 | 4.8 | 8.0 | 0.00 | 0.00 | 0.00 | 39 | 679.5 |